McMinnville, OR

4:47 PM PDT on April 27, 2017 (GMT -0700)
McMinnville Municipal

Weather History for KMMV - October, 2011

Change the Weather History Date:

Thursday, October 20, 2011

  Actual Average Record
Temperature  
Mean Temperature 56 °F 50 °F  
Max Temperature 63 °F 61 °F 76 °F (1938)
Min Temperature 48 °F 40 °F 26 °F (1949)
Degree Days  
Heating Degree Days 9 15  
Month to date heating degree days 167 230  
Since 1 July heating degree days 270 446  
Cooling Degree Days 0 0  
Month to date cooling degree days 0 0  
Year to date cooling degree days 251 214  
Growing Degree Days 5 (Base 50)    
Moisture  
Dew Point 48 °F    
Average Humidity 75    
Maximum Humidity 89    
Minimum Humidity 60    
Precipitation  
Precipitation T in 0.13 in 1.61 in (1946)
Month to date precipitation 1.78 1.77  
Year to date precipitation 25.55 25.48  
Snow  
Snow 0.00 in - - ()
Month to date snowfall 0.0  
Snow Depth 0.00 in    
Sea Level Pressure  
Sea Level Pressure 30.11 in    
Wind  
Wind Speed 3 mph (NW)    
Max Wind Speed 9 mph    
Max Gust Speed 12 mph    
Visibility 10 miles    
Events Rain    
T = Trace of Precipitation, MM = Missing Value Source: NWS Daily Summary

Daily Weather History Graph

Daily Weather History Graph

Search for Another Location

Airport or City:

Trip Planner

Search our weather history database for the weather conditions in past years. The results will help you decide how hot, cold, wet, or windy it might be!

Date:

Astronomy

Oct. 20, 2011 Rise Set
Actual Time 7:34 AM PDT 6:19 PM PDT
Civil Twilight 7:04 AM PDT 6:49 PM PDT
Nautical Twilight 6:30 AM PDT 7:23 PM PDT
Astronomical Twilight 5:56 AM PDT 7:57 PM PDT
Moon 12:06 AM PDT (10/20) 2:48 PM PDT (10/20)
Length of Visible Light 11h 44m
Length of Day
10h 44m
Last Quarter, 43% of the Moon is Illuminated
Oct 20
Last Quarter
Oct 26
New
Nov 2
First Quarter
Nov 10
Full
Nov 18
Last Quarter

Hourly Weather History & Observations

Time (PDT) Temp. Dew Point Humidity Pressure Visibility Wind Dir Wind Speed Gust Speed Precip Events Conditions
12:53 AM 52.0 °F 48.0 °F 86% 30.13 in 10.0 mi Calm Calm - N/A   Overcast
1:53 AM 51.1 °F 46.9 °F 86% 30.13 in 10.0 mi Calm Calm - N/A   Overcast
2:53 AM 50.0 °F 46.0 °F 86% 30.12 in 10.0 mi Calm Calm - N/A   Mostly Cloudy
4:53 AM 50.0 °F 46.0 °F 86% 30.13 in 10.0 mi Calm Calm - 0.00 in Rain Light Rain
5:53 AM 50.0 °F 46.9 °F 89% 30.11 in 10.0 mi Calm Calm - 0.00 in   Overcast
6:53 AM 50.0 °F 46.9 °F 89% 30.11 in 10.0 mi NW 4.6 mph - N/A   Clear
7:53 AM 48.0 °F 45.0 °F 89% 30.12 in 10.0 mi NNW 3.5 mph - N/A   Clear
8:53 AM 51.1 °F 46.9 °F 86% 30.11 in 10.0 mi NNW 3.5 mph - N/A   Clear
9:53 AM 53.1 °F 48.0 °F 83% 30.13 in 10.0 mi NNW 4.6 mph - N/A   Clear
10:53 AM 57.0 °F 48.9 °F 74% 30.12 in 10.0 mi North - - 0.00 in   Scattered Clouds
11:53 AM 61.0 °F 48.9 °F 64% 30.12 in 10.0 mi Calm Calm - N/A   Partly Cloudy
1:53 PM 62.1 °F 48.9 °F 62% 30.08 in 10.0 mi North 5.8 mph - N/A   Partly Cloudy
2:53 PM 61.0 °F 48.9 °F 64% 30.08 in 10.0 mi NNW 6.9 mph - N/A   Mostly Cloudy
3:53 PM 61.0 °F 48.0 °F 62% 30.07 in 10.0 mi North 8.1 mph - N/A   Overcast
4:53 PM 60.1 °F 48.9 °F 67% 30.07 in 10.0 mi NNW 4.6 mph - 0.00 in   Mostly Cloudy
5:53 PM 59.0 °F 48.9 °F 69% 30.06 in 10.0 mi North 3.5 mph - 0.00 in   Mostly Cloudy
6:53 PM 57.9 °F 50.0 °F 75% 30.08 in 10.0 mi NW 3.5 mph - 0.00 in   Overcast
7:53 PM 53.1 °F 50.0 °F 89% 30.09 in 10.0 mi SSW 3.5 mph - N/A   Mostly Cloudy
8:53 PM 55.0 °F 50.0 °F 83% 30.10 in 10.0 mi Calm Calm - N/A   Clear
9:53 PM 53.1 °F 50.0 °F 89% 30.11 in 10.0 mi SSE 3.5 mph - N/A   Clear
10:53 PM 53.1 °F 50.0 °F 89% 30.12 in 10.0 mi SSW 3.5 mph - N/A   Partly Cloudy
11:53 PM 52.0 °F 48.0 °F 86% 30.13 in 10.0 mi SSE 5.8 mph - N/A   Mostly Cloudy